START_TIME,STEP,MOV.,M29,t_acc.,H22,t_acc.,H26,t_acc.,H30,t_acc.
1979-07-23 23:42:31.420 ,0,0,0.,24.0,0.,24.0,0.,24.0,0.,24.0
1979-07-23 23:42:55.420 ,0,0,0.,24.0,0.,24.0,0.,24.0,0.,24.0
1979-07-23 23:43:19.420 ,4,1,0.,24.0,0.,24.0,0.,24.0,0.,24.0
1979-07-23 23:43:43.420 ,4,0,0.,24.0,0.,24.0,0.,24.0,0.,24.0
1979-07-23 23:44:07.420 ,3,1,0.,24.0,0.,24.0,0.,24.0,0.,24.0
1979-07-23 23:44:31.420 ,3,0,0.,24.0,0.,24.0,0.,24.0,0.,24.0
1979-07-23 23:44:55.420 ,2,1,0.,24.0,0.,24.0,0.,24.0,0.,24.0
1979-07-23 23:45:19.420 ,2,0,0.,24.0,0.,24.0,0.,24.0,0.,24.0
1979-07-23 23:45:19.420 ,2,0,0.,24.0,0.,24.0,0.,24.0,0.,24.0
1979-07-23 23:45:43.420 ,1,1,0.,24.0,0.,24.0,0.,24.0,0.,24.0
1979-07-23 23:46:07.420 ,1,0,0.,24.0,0.,24.0,0.,24.0,0.,24.0
1979-07-23 23:46:31.420 ,0,1,0.,24.0,0.,24.0,0.,24.0,0.,24.0
1979-07-23 23:46:55.420 ,0,0,0.,24.0,0.,24.0,0.,24.0,0.,24.0
1979-07-23 23:47:19.420 ,0,1,0.,24.0,0.,24.0,0.,24.0,0.,24.0
1979-07-23 23:47:43.420 ,0,0,1.,24.0,0.,24.0,0.,24.0,0.,24.0
1979-07-23 23:48:07.420 ,1,1,0.,24.0,0.,24.0,0.,24.0,0.,24.0
1979-07-23 23:48:31.420 ,1,0,0.,24.0,0.,24.0,0.,24.0,0.,24.0
1979-07-23 23:48:55.420 ,2,1,0.,24.0,0.,24.0,0.,24.0,0.,24.0
1979-07-23 23:49:19.420 ,2,0,0.,24.0,0.,24.0,0.,24.0,0.,24.0
1979-07-23 23:49:43.420 ,3,1,0.,24.0,0.,24.0,0.,24.0,0.,24.0
1979-07-23 23:50:07.420 ,3,0,0.,24.0,0.,24.0,0.,24.0,0.,24.0
1979-07-23 23:50:31.420 ,4,1,0.,24.0,0.,24.0,0.,24.0,0.,24.0
1979-07-23 23:50:55.420 ,4,0,0.,24.0,0.,24.0,0.,24.0,0.,24.0
1979-07-23 23:51:19.420 ,5,1,0.,24.0,0.,24.0,0.,24.0,0.,24.0
1979-07-23 23:51:43.420 ,5,0,0.,24.0,0.,24.0,0.,24.0,0.,24.0
1979-07-23 23:52:07.420 ,6,1,0.,24.0,0.,24.0,0.,24.0,0.,24.0
1979-07-23 23:52:31.420 ,6,0,0.,24.0,0.,24.0,0.,24.0,0.,24.0
1979-07-23 23:52:55.420 ,7,1,0.,24.0,0.,24.0,0.,24.0,0.,24.0
1979-07-23 23:53:19.420 ,7,0,0.,24.0,0.,24.0,0.,24.0,0.,24.0
1979-07-23 23:53:43.420 ,7,1,0.,24.0,0.,24.0,0.,24.0,0.,24.0
1979-07-23 23:54:07.420 ,7,0,0.,24.0,0.,24.0,0.,24.0,0.,24.0
1979-07-23 23:54:31.420 ,6,1,0.,24.0,0.,24.0,0.,24.0,0.,24.0
1979-07-23 23:54:55.420 ,6,0,0.,24.0,0.,24.0,0.,24.0,0.,24.0
1979-07-23 23:55:19.420 ,5,1,0.,24.0,0.,24.0,0.,24.0,0.,24.0
1979-07-23 23:55:43.420 ,5,0,0.,24.0,0.,24.0,0.,24.0,0.,24.0
1979-07-23 23:56:07.420 ,4,1,0.,24.0,0.,24.0,0.,24.0,0.,24.0
1979-07-23 23:56:31.420 ,4,0,0.,24.0,0.,24.0,0.,24.0,0.,24.0
1979-07-23 23:56:55.420 ,3,1,0.,24.0,0.,24.0,0.,24.0,0.,24.0
1979-07-23 23:57:19.420 ,3,0,0.,24.0,0.,24.0,0.,24.0,0.,24.0
1979-07-23 23:57:43.420 ,2,1,0.,24.0,0.,24.0,0.,24.0,0.,24.0
1979-07-23 23:58:07.420 ,2,0,0.,24.0,0.,24.0,0.,24.0,0.,24.0
1979-07-23 23:58:31.420 ,1,1,0.,24.0,0.,24.0,0.,24.0,0.,24.0
1979-07-23 23:58:55.420 ,1,0,0.,24.0,0.,24.0,0.,24.0,0.,24.0
1979-07-23 23:59:19.420 ,0,1,0.,24.0,0.,24.0,0.,24.0,0.,24.0
1979-07-23 23:59:43.420 ,0,0,0.,24.0,0.,24.0,0.,24.0,0.,24.0
1979-07-24 00:00:07.420 ,0,1,0.,24.0,0.,24.0,0.,24.0,0.,24.0
